Flag for Switzerland Weather past 2 weeks in Schaffhausen, Schaffhausen, Switzerland

Now
61 °F

Cool.


Feels Like: 61 °F
Forecast: 60 / 89 °F
Wind: 2 mph from Northwest

Location: Zurich-Kloten

Current Time: Aug 29, 2015 at 8:52:57 AM

Latest Report: Aug 29, 2015 at 7:00 AM


Visibility: N/A

Pressure: 30.18 "Hg

Humidity: 93%

Dew point: 59 °F

Location of SchaffhausenLocation

Historic Weather in Schaffhausen — Graph

°F

Schaffhausen temperature yesterday

Maximum temperature yesterday: 88 °F (at 5:00 PM)
Minimum temperature yesterday: 64 °F (at 5:00 AM)
Average temperature yesterday: 76 °F

Past Weeks' High & Low Weather Summary

 TemperatureHumidityPressure
High88 °F (Aug 28, 5:00 PM)100% (Aug 21, 8:00 AM)30.28 "Hg (Aug 21, 8:00 AM)
Low47 °F (Aug 26, 5:00 AM)31% (Aug 22, 4:00 PM)29.70 "Hg (Aug 24, 8:00 AM)
Average64 °F74%30.00 "Hg
* Reported Aug 14 7:00 AM — Aug 29 7:00 AM, Schaffhausen, Weather by CustomWeather, © 2015

Note: Actual official high and low records may vary slightly from our data, if they occured in-between our weather recording intervals... More about our weather records

Advertising

Schaffhausen weather history for previous 24 hours

 ConditionsComfort  
Time TempWeatherWind HumidityBarometerVisibility
7:00 AM
Sat, Aug 29
61 °FCool.2 mph93%30.18 "HgN/A
4:00 AM60 °FCool.5 mph93%30.17 "HgN/A
3:00 AM61 °FCool.2 mph91%30.17 "HgN/A
2:00 AM65 °FClear.1 mph85%30.16 "Hg22 mi
1:00 AM66 °FMild.2 mph83%30.15 "HgN/A
10:00 PM
Fri, Aug 28
71 °FMild.3 mph72%30.10 "HgN/A
9:00 PM75 °FMild.3 mph59%30.07 "HgN/A
8:00 PM80 °FScattered clouds.5 mph51%30.03 "Hg25 mi
7:00 PM83 °FWarm.7 mph47%30.02 "HgN/A
6:00 PM86 °FPleasantly warm.5 mph37%30.00 "HgN/A
5:00 PM88 °FPassing clouds.7 mph36%30.00 "Hg28 mi
4:00 PM87 °FPleasantly warm.6 mph36%30.01 "HgN/A
2:00 PM85 °FScattered clouds.5 mph37%30.02 "Hg22 mi
1:00 PM82 °FWarm.3 mph41%30.03 "HgN/A
12:00 PM81 °FWarm.6 mph44%30.04 "HgN/A
11:00 AM79 °FPartly sunny.7 mph48%30.03 "Hg16 mi
10:00 AM78 °FWarm.7 mph51%30.02 "HgN/A
9:00 AM73 °FMild.6 mph59%30.03 "HgN/A
8:00 AM69 °FPartly sunny.5 mph65%30.03 "Hg19 mi
Weather by CustomWeather, © 2015

See weather overviewHow to use our weather pages